Location: Poughquag
(41.6090°N, 73.6820°W)
Time: 03:14:37
(UTC-05:00)

N. Korean satellite - Visible Passes

Search period start: 18 January 2018 00:00
Search period end: 28 January 2018 00:00
Orbit: 459 x 515 km, 97.2° (Epoch: 17 January)

Date Brightness Start Highest point End Pass type
(mag) Time Alt. Az. Time Alt. Az. Time Alt. Az.
18 Jan 9.0 06:02:53 10° NE 06:05:48 25° E 06:08:43 10° SSE visible
18 Jan 7.8 18:12:00 10° S 18:15:29 44° W 18:18:56 10° NNW visible
19 Jan 9.9 05:40:18 10° ENE 05:42:00 13° E 05:43:41 10° ESE visible
19 Jan 6.5 17:48:11 10° SSE 17:51:49 86° ENE 17:55:23 10° N visible
20 Jan 7.0 17:24:49 10° SE 17:28:12 40° ENE 17:31:34 10° N visible
20 Jan 10.1 19:00:30 10° WSW 19:01:53 12° W 19:03:17 10° WNW visible
21 Jan 7.4 06:25:00 10° NNE 06:28:22 52° E 06:31:45 10° S visible
21 Jan 9.2 18:35:11 10° SSW 18:38:05 23° W 18:40:56 10° NW visible
22 Jan 9.1 06:01:44 10° NE 06:04:37 25° E 06:07:31 10° SSE visible
22 Jan 7.8 18:10:53 10° S 18:14:19 45° W 18:17:44 10° NNW visible
23 Jan 10.0 05:39:10 10° ENE 05:40:48 13° E 05:42:26 10° ESE visible
23 Jan 6.5 17:47:04 10° SSE 17:50:38 84° ENE 17:54:11 10° N visible
24 Jan 10.1 18:59:18 10° WSW 19:00:43 12° W 19:02:07 10° WNW visible
25 Jan 7.5 06:23:47 10° NNE 06:27:10 50° E 06:30:33 10° S visible
25 Jan 9.2 18:34:00 10° SSW 18:36:52 23° W 18:39:43 10° NW visible
26 Jan 9.1 06:00:31 10° NE 06:03:24 24° E 06:06:18 10° SSE visible
26 Jan 7.7 18:09:41 10° S 18:13:07 46° W 18:16:31 10° NNW visible
27 Jan 10.0 05:37:59 10° ENE 05:39:35 13° E 05:41:10 10° ESE visible
27 Jan 6.4 17:45:54 10° SSE 17:49:25 81° ENE 17:52:56 10° N visible
